TimeCDT,TemperatureF,Dew PointF,Humidity,Sea Level PressureIn,VisibilityMPH,Wind Direction,Wind SpeedMPH,Gust SpeedMPH,PrecipitationIn,Events,Conditions,WindDirDegrees,DateUTC
12:53 AM,46.9,33.1,59,29.83,10.0,WSW,11.5,-,N/A,,Overcast,240,2013-10-06 05:53:00
1:53 AM,46.0,33.1,61,29.81,10.0,SW,10.4,-,N/A,,Overcast,230,2013-10-06 06:53:00
2:53 AM,45.0,34.0,65,29.80,10.0,SW,9.2,-,N/A,,Overcast,230,2013-10-06 07:53:00
3:28 AM,44.6,33.8,66,29.79,10.0,West,12.7,-,N/A,,Overcast,260,2013-10-06 08:28:00
3:53 AM,44.1,34.0,68,29.79,10.0,WSW,10.4,-,N/A,,Overcast,250,2013-10-06 08:53:00
4:53 AM,44.1,35.1,71,29.78,10.0,SW,9.2,-,N/A,,Overcast,230,2013-10-06 09:53:00
5:53 AM,44.1,36.0,73,29.79,10.0,WSW,8.1,-,N/A,,Overcast,240,2013-10-06 10:53:00
6:31 AM,42.8,39.2,87,29.78,5.0,WSW,8.1,-,N/A,,Overcast,240,2013-10-06 11:31:00
6:46 AM,42.8,39.2,87,29.78,4.0,WSW,9.2,-,N/A,,Overcast,240,2013-10-06 11:46:00
6:53 AM,42.1,39.9,92,29.79,5.0,WSW,5.8,-,N/A,,Overcast,250,2013-10-06 11:53:00
7:53 AM,43.0,39.9,89,29.80,10.0,WSW,9.2,-,0.00,,Overcast,250,2013-10-06 12:53:00
8:26 AM,44.6,41.0,87,29.78,10.0,West,11.5,-,0.00,,Overcast,280,2013-10-06 13:26:00
8:53 AM,44.1,39.9,85,29.80,10.0,NW,11.5,-,0.00,,Overcast,310,2013-10-06 13:53:00
9:14 AM,46.4,39.2,76,29.79,10.0,NW,12.7,-,N/A,,Mostly Cloudy,310,2013-10-06 14:14:00
9:53 AM,45.0,37.9,76,29.82,10.0,NW,13.8,-,N/A,,Overcast,310,2013-10-06 14:53:00
10:53 AM,45.0,39.0,80,29.84,10.0,West,16.1,-,N/A,,Overcast,280,2013-10-06 15:53:00
11:53 AM,45.0,41.0,86,29.85,10.0,West,12.7,-,0.01,Rain,Light Rain,270,2013-10-06 16:53:00
12:03 PM,44.6,41.0,87,29.83,10.0,West,10.4,-,0.00,Rain,Light Rain,270,2013-10-06 17:03:00
12:17 PM,46.4,41.0,81,29.83,10.0,West,10.4,-,0.00,,Overcast,280,2013-10-06 17:17:00
12:53 PM,46.9,43.0,86,29.84,10.0,West,12.7,-,0.00,,Overcast,280,2013-10-06 17:53:00
1:08 PM,46.4,42.8,87,29.82,10.0,West,12.7,-,0.00,Rain,Light Rain,270,2013-10-06 18:08:00
1:38 PM,48.2,44.6,87,29.81,9.0,West,12.7,-,0.00,Rain,Light Rain,270,2013-10-06 18:38:00
1:53 PM,48.0,45.0,89,29.82,10.0,West,10.4,23.0,0.00,Rain,Light Rain,270,2013-10-06 18:53:00
2:09 PM,48.2,44.6,87,29.81,5.0,West,13.8,20.7,0.01,Rain,Light Rain,270,2013-10-06 19:09:00
2:19 PM,48.2,44.6,87,29.80,5.0,WSW,15.0,19.6,0.01,Rain,Light Rain,250,2013-10-06 19:19:00
2:34 PM,48.2,46.4,93,29.80,9.0,WSW,15.0,23.0,0.02,Rain,Light Rain,250,2013-10-06 19:34:00
2:53 PM,48.9,46.0,90,29.81,10.0,West,16.1,21.9,0.02,,Overcast,260,2013-10-06 19:53:00
3:03 PM,48.2,46.4,93,29.79,10.0,West,12.7,-,0.00,Rain,Light Rain,260,2013-10-06 20:03:00
3:53 PM,50.0,45.0,83,29.81,10.0,WNW,17.3,26.5,0.00,Rain,Light Rain,290,2013-10-06 20:53:00
4:53 PM,48.9,46.0,90,29.84,7.0,West,15.0,27.6,0.03,Rain,Light Rain,280,2013-10-06 21:53:00
5:13 PM,48.2,44.6,87,29.83,10.0,West,17.3,24.2,0.00,Rain,Light Rain,280,2013-10-06 22:13:00
5:31 PM,48.2,44.6,87,29.84,10.0,WNW,18.4,26.5,0.00,Rain,Light Rain,290,2013-10-06 22:31:00
5:53 PM,48.0,45.0,89,29.86,10.0,WNW,18.4,24.2,0.00,,Overcast,290,2013-10-06 22:53:00
6:53 PM,48.0,45.0,89,29.88,10.0,WNW,12.7,20.7,N/A,,Overcast,290,2013-10-06 23:53:00
7:40 PM,48.2,44.6,87,29.89,10.0,WNW,13.8,23.0,N/A,,Overcast,290,2013-10-07 00:40:00
7:53 PM,48.0,45.0,89,29.91,10.0,WNW,18.4,26.5,N/A,,Overcast,290,2013-10-07 00:53:00
8:53 PM,48.0,45.0,89,29.92,10.0,WNW,11.5,19.6,N/A,,Overcast,300,2013-10-07 01:53:00
9:03 PM,48.2,44.6,87,29.91,10.0,WNW,11.5,-,N/A,,Overcast,300,2013-10-07 02:03:00
9:53 PM,48.9,45.0,86,29.94,10.0,NW,9.2,-,N/A,,Overcast,310,2013-10-07 02:53:00
10:24 PM,48.2,44.6,87,29.93,10.0,WNW,12.7,-,N/A,,Overcast,300,2013-10-07 03:24:00
10:51 PM,48.2,44.6,87,29.93,10.0,NW,11.5,-,N/A,,Mostly Cloudy,310,2013-10-07 03:51:00
10:53 PM,48.9,45.0,86,29.95,10.0,NW,11.5,-,N/A,,Mostly Cloudy,310,2013-10-07 03:53:00
11:42 PM,50.0,44.6,82,29.94,10.0,NW,15.0,24.2,N/A,,Overcast,320,2013-10-07 04:42:00
11:53 PM,50.0,45.0,83,29.95,10.0,NW,13.8,-,N/A,,Overcast,310,2013-10-07 04:53:00